This is the latest recevied weather packets stored in our database for station/object KC3ULW-13. If no packets are shown the sender has not sent any weather packets the latest 10 day(s).
| Time | Temp. | Humidity | Pressure | Rain* | Wind** | Luminosity | Snow |
|---|---|---|---|---|---|---|---|
| 1777246175 | 16.67° C | 54% | 1022 hPa | 0 mm | - | 32 W/m² | - |
| 1777245873 | 16.11° C | 56% | 1022 hPa | 0 mm | - | 36 W/m² | - |
| 1777245570 | 16.11° C | 55% | 1021.6 hPa | 0 mm | - | 49 W/m² | - |
| 1777245266 | 16.11° C | 56% | 1022 hPa | 0 mm | - | 55 W/m² | - |
| 1777244962 | 16.67° C | 56% | 1021.7 hPa | 0 mm | - | 64 W/m² | - |
| 1777244658 | 16.67° C | 56% | 1021.7 hPa | 0 mm | - | 83 W/m² | - |
| 1777244354 | 16.11° C | 56% | 1021.7 hPa | 0 mm | - | 98 W/m² | - |
| 1777244052 | 16.67° C | 55% | 1021.7 hPa | 0 mm | - | 103 W/m² | - |
| 1777243749 | 16.67° C | 56% | 1021.8 hPa | 0 mm | - | 113 W/m² | - |
| 1777243446 | 17.22° C | 56% | 1021.8 hPa | 0 mm | - | 128 W/m² | - |
| 1777243142 | 16.67° C | 56% | 1021.9 hPa | 0 mm | - | 142 W/m² | - |
| 1777242838 | 17.22° C | 55% | 1021.9 hPa | 0 mm | - | 162 W/m² | - |
| 1777242535 | 16.67° C | 57% | 1022 hPa | 0 mm | - | 167 W/m² | - |
| 1777242231 | 17.22° C | 55% | 1021.8 hPa | 0 mm | - | 163 W/m² | - |
| 1777241929 | 17.22° C | 55% | 1022 hPa | 0 mm | - | 171 W/m² | - |
| 1777241625 | 17.22° C | 55% | 1021.9 hPa | 0 mm | - | 215 W/m² | - |
| 1777241323 | 16.67° C | 56% | 1021.8 hPa | 0 mm | - | 219 W/m² | - |
| 1777241020 | 17.78° C | 55% | 1021.7 hPa | 0 mm | - | 237 W/m² | - |
| 1777240718 | 17.22° C | 55% | 1021.6 hPa | 0 mm | - | 230 W/m² | - |
| 1777240416 | 17.78° C | 55% | 1021.8 hPa | 0 mm | - | 240 W/m² | - |
| 1777240113 | 17.78° C | 54% | 1021.6 hPa | 0 mm | - | 271 W/m² | - |
| 1777239811 | 17.22° C | 56% | 1021.7 hPa | 0 mm | - | 246 W/m² | - |
| 1777239506 | 18.33° C | 54% | 1021.6 hPa | 0 mm | - | 244 W/m² | - |
| 1777239204 | 17.78° C | 55% | 1021.9 hPa | 0 mm | - | 264 W/m² | - |
| 1777238901 | 17.78° C | 55% | 1021.6 hPa | 0 mm | - | 313 W/m² | - |
* Rain latest hour (hover to see other rain measurements)
** Current wind speed in m/s (hover to see current wind gust speed)